When you browse on this site, cookies collect data to enhance your experience and personalize the content and advertising you see.
Visit our Privacy Policy to learn more. By continuing to use the site, you agree to this use of cookies and data.
  • în România
  • Lista ţărilor
  • Pe 7 zile
  • Temperatura apei
  • Meteo pe hartă
  • Widget-uri
  • user-avatar
    Intrare

    Meteo pe oră la Jalapa

    Astăzi, 19 Noiembrie, Marţi

    Timp Temperatura Precipitaţii Vânt Presiune Umiditate
    00:00 +13°C° 0 mm 1 m/s 640 mmHg 96%
    01:00 +13°C° 0 mm 1 m/s 640 mmHg 96%
    02:00 +13°C° 0 mm 1 m/s 640 mmHg 95%
    03:00 +13°C° 0 mm 1 m/s 640 mmHg 95%
    04:00 +13°C° 0 mm 1 m/s 640 mmHg 94%
    05:00 +13°C° 0 mm 1 m/s 640 mmHg 94%
    06:00 +13°C° 0 mm 1 m/s 641 mmHg 93%
    07:00 +15°C° 0 mm 1 m/s 642 mmHg 87%
    08:00 +18°C° 0 mm 1 m/s 642 mmHg 81%
    09:00 +20°C° 0 mm 1 m/s 643 mmHg 75%
    10:00 +21°C° 0 mm 1 m/s 643 mmHg 71%
    11:00 +22°C° 0 mm 1 m/s 643 mmHg 68%
    12:00 +23°C° 0 mm 1 m/s 643 mmHg 64%
    13:00 +23°C° 0 mm 1 m/s 643 mmHg 66%
    14:00 +23°C° 0 mm 1 m/s 642 mmHg 69%
    15:00 +22°C° 0 mm 1 m/s 642 mmHg 71%
    16:00 +21°C° 0 mm 1 m/s 642 mmHg 78%
    17:00 +19°C° 0 mm 1 m/s 641 mmHg 84%
    18:00 +18°C° 0 mm 1 m/s 641 mmHg 90%
    19:00 +16°C° 0 mm 1 m/s 642 mmHg 92%
    20:00 +15°C° 0 mm 1 m/s 642 mmHg 94%
    21:00 +14°C° 0 mm 1 m/s 642 mmHg 95%
    22:00 +14°C° 0 mm 1 m/s 642 mmHg 95%
    23:00 +14°C° 0 mm 1 m/s 642 mmHg 95%

    Mâine, 20 Noiembrie, Miercuri

    Timp Temperatura Precipitaţii Vânt Presiune Umiditate
    00:00 +13°C° 0 mm 1 m/s 641 mmHg 95%
    01:00 +13°C° 0 mm 1 m/s 641 mmHg 95%
    02:00 +13°C° 0 mm 1 m/s 641 mmHg 95%
    03:00 +13°C° 0 mm 1 m/s 641 mmHg 95%
    04:00 +13°C° 0 mm 1 m/s 641 mmHg 96%
    05:00 +13°C° 0 mm 1 m/s 641 mmHg 96%
    06:00 +13°C° 0 mm 1 m/s 641 mmHg 96%
    07:00 +14°C° 0 mm 1 m/s 642 mmHg 90%
    08:00 +16°C° 0 mm 1 m/s 643 mmHg 84%
    09:00 +19°C° 0 mm 1 m/s 644 mmHg 78%
    10:00 +21°C° 0 mm 1 m/s 644 mmHg 73%
    11:00 +22°C° 0 mm 1 m/s 644 mmHg 67%
    12:00 +24°C° 0 mm 1 m/s 644 mmHg 62%
    13:00 +24°C° 0 mm 1 m/s 643 mmHg 64%
    14:00 +23°C° 0 mm 1 m/s 643 mmHg 66%
    15:00 +23°C° 0 mm 1 m/s 642 mmHg 68%
    16:00 +21°C° 0 mm 1 m/s 642 mmHg 76%
    17:00 +19°C° 0 mm 1 m/s 641 mmHg 83%
    18:00 +16°C° 0 mm 1 m/s 641 mmHg 91%
    19:00 +16°C° 0 mm 1 m/s 641 mmHg 92%
    20:00 +15°C° 0 mm 1 m/s 642 mmHg 93%
    21:00 +15°C° 0 mm 1 m/s 642 mmHg 94%
    22:00 +14°C° 0 mm 1 m/s 642 mmHg 94%
    23:00 +14°C° 0 mm 1 m/s 642 mmHg 95%

    Poimâine, 21 Noiembrie, Joi

    Timp Temperatura Precipitaţii Vânt Presiune Umiditate
    00:00 +14°C° 0 mm 1 m/s 641 mmHg 95%
    01:00 +14°C° 0 mm 1 m/s 641 mmHg 95%
    02:00 +13°C° 0 mm 1 m/s 641 mmHg 94%
    03:00 +13°C° 0 mm 1 m/s 640 mmHg 94%
    04:00 +13°C° 0 mm 1 m/s 641 mmHg 94%
    05:00 +13°C° 0 mm 1 m/s 641 mmHg 94%
    06:00 +13°C° 0 mm 1 m/s 641 mmHg 94%
    07:00 +15°C° 0 mm 1 m/s 642 mmHg 89%
    08:00 +18°C° 0 mm 1 m/s 643 mmHg 83%
    09:00 +20°C° 0 mm 1 m/s 644 mmHg 78%
    10:00 +22°C° 0 mm 1 m/s 644 mmHg 73%
    11:00 +23°C° 0 mm 1 m/s 644 mmHg 68%
    12:00 +24°C° 0 mm 1 m/s 644 mmHg 63%
    13:00 +24°C° 0 mm 1 m/s 643 mmHg 64%
    14:00 +24°C° 0 mm 1 m/s 642 mmHg 65%
    15:00 +24°C° 0 mm 1 m/s 642 mmHg 65%
    16:00 +22°C° 0 mm 1 m/s 641 mmHg 73%
    17:00 +20°C° 0 mm 1 m/s 641 mmHg 80%
    18:00 +16°C° 0 mm 0 m/s 641 mmHg 88%
    19:00 +15°C° 0 mm 0 m/s 641 mmHg 89%
    20:00 +15°C° 0 mm 0 m/s 641 mmHg 90%
    21:00 +15°C° 0 mm 1 m/s 642 mmHg 91%
    22:00 +15°C° 0 mm 1 m/s 641 mmHg 92%
    23:00 +15°C° 0 mm 1 m/s 641 mmHg 92%

    22 Noiembrie, Vineri

    Timp Temperatura Precipitaţii Vânt Presiune Umiditate
    00:00 +14°C° 0 mm 1 m/s 641 mmHg 93%
    01:00 +14°C° 0 mm 1 m/s 641 mmHg 93%
    02:00 +14°C° 0 mm 1 m/s 640 mmHg 94%
    03:00 +14°C° 0 mm 1 m/s 640 mmHg 94%
    04:00 +14°C° 0 mm 1 m/s 640 mmHg 94%
    05:00 +14°C° 0 mm 1 m/s 640 mmHg 94%
    06:00 +14°C° 0 mm 1 m/s 641 mmHg 93%
    07:00 +16°C° 0 mm 1 m/s 642 mmHg 86%
    08:00 +19°C° 0 mm 1 m/s 643 mmHg 78%
    09:00 +22°C° 0 mm 1 m/s 644 mmHg 71%
    10:00 +23°C° 0 mm 1 m/s 644 mmHg 66%
    11:00 +25°C° 0 mm 1 m/s 644 mmHg 61%
    12:00 +26°C° 0 mm 1 m/s 644 mmHg 56%
    13:00 +26°C° 0 mm 1 m/s 643 mmHg 58%
    14:00 +25°C° 0 mm 1 m/s 642 mmHg 60%
    15:00 +25°C° 0 mm 1 m/s 642 mmHg 62%
    16:00 +23°C° 0 mm 1 m/s 641 mmHg 71%
    17:00 +21°C° 0 mm 1 m/s 641 mmHg 80%
    18:00 +17°C° 0 mm 0 m/s 641 mmHg 89%
    19:00 +16°C° 0 mm 0 m/s 641 mmHg 90%
    20:00 +16°C° 0 mm 0 m/s 641 mmHg 91%
    21:00 +16°C° 0 mm 0 m/s 642 mmHg 93%
    22:00 +15°C° 0 mm 0 m/s 642 mmHg 93%
    23:00 +15°C° 0 mm 0 m/s 642 mmHg 94%

    23 Noiembrie, Sâmbătă

    Timp Temperatura Precipitaţii Vânt Presiune Umiditate
    00:00 +15°C° 0 mm 0 m/s 641 mmHg 94%
    01:00 +16°C° 0 mm 1 m/s 641 mmHg 95%
    02:00 +16°C° 0 mm 1 m/s 640 mmHg 95%
    03:00 +15°C° 0 mm 1 m/s 640 mmHg 96%
    04:00 +15°C° 0 mm 1 m/s 640 mmHg 96%
    05:00 +15°C° 0 mm 1 m/s 640 mmHg 96%
    06:00 +15°C° 0 mm 1 m/s 641 mmHg 96%
    07:00 +18°C° 0 mm 1 m/s 642 mmHg 89%
    08:00 +20°C° 0 mm 1 m/s 643 mmHg 82%
    09:00 +22°C° 0 mm 1 m/s 644 mmHg 74%
    10:00 +23°C° 0 mm 1 m/s 644 mmHg 69%
    11:00 +25°C° 0 mm 1 m/s 644 mmHg 64%
    12:00 +26°C° 0 mm 1 m/s 644 mmHg 59%
    13:00 +26°C° 0 mm 1 m/s 643 mmHg 59%
    14:00 +25°C° 0 mm 1 m/s 643 mmHg 60%
    15:00 +25°C° 0 mm 1 m/s 642 mmHg 60%
    16:00 +23°C° 0 mm 1 m/s 642 mmHg 69%
    17:00 +21°C° 0 mm 1 m/s 641 mmHg 78%
    18:00 +19°C° 0 mm 1 m/s 641 mmHg 88%
    19:00 +18°C° 0 mm 1 m/s 641 mmHg 90%
    20:00 +18°C° 0 mm 1 m/s 642 mmHg 91%
    21:00 +16°C° 0 mm 1 m/s 642 mmHg 93%
    22:00 +16°C° 0 mm 1 m/s 642 mmHg 94%
    23:00 +16°C° 0 mm 1 m/s 642 mmHg 95%

    24 Noiembrie, Duminică

    Timp Temperatura Precipitaţii Vânt Presiune Umiditate
    00:00 +16°C° 0 mm 1 m/s 642 mmHg 96%
    01:00 +16°C° 0 mm 1 m/s 641 mmHg 97%
    02:00 +16°C° 0 mm 1 m/s 641 mmHg 97%
    03:00 +16°C° 0 mm 1 m/s 641 mmHg 97%
    04:00 +15°C° 0 mm 1 m/s 641 mmHg 97%
    05:00 +15°C° 0 mm 1 m/s 641 mmHg 97%
    06:00 +15°C° 0 mm 1 m/s 641 mmHg 97%
    07:00 +18°C° 0 mm 1 m/s 642 mmHg 90%
    08:00 +19°C° 0 mm 1 m/s 643 mmHg 83%
    09:00 +21°C° 0 mm 1 m/s 644 mmHg 76%
    10:00 +23°C° 0 mm 2 m/s 644 mmHg 71%
    11:00 +24°C° 0 mm 2 m/s 644 mmHg 66%
    12:00 +25°C° 0 mm 2 m/s 643 mmHg 62%
    13:00 +25°C° 0 mm 2 m/s 643 mmHg 63%
    14:00 +25°C° 0 mm 2 m/s 642 mmHg 64%
    15:00 +25°C° 0 mm 2 m/s 642 mmHg 65%
    16:00 +23°C° 0 mm 2 m/s 641 mmHg 74%
    17:00 +21°C° 0 mm 1 m/s 641 mmHg 83%
    18:00 +19°C° 0 mm 1 m/s 641 mmHg 92%
    19:00 +19°C° 0 mm 1 m/s 641 mmHg 93%
    20:00 +18°C° 0 mm 1 m/s 641 mmHg 94%
    21:00 +18°C° 0 mm 1 m/s 642 mmHg 96%
    22:00 +16°C° 0 mm 1 m/s 641 mmHg 96%
    23:00 +16°C° 0 mm 1 m/s 641 mmHg 97%
    Arată mai mult